Wind_Speed
15 14 13 13 14 14 13 11 11 11 11 10 11 10 10 11 13 14 15 15 16 17 17 18 17 16 15 14 13 12 11 9 8 9 11 12 14 16 16 15 15 14 12
20 18 16 16 17 17 16 14 14 14 14 14 13 12 13 14 15 16 17 17 18 19 20 21 21 21 20 19 18 17 16 15 13 12 12 13 13 15 18 18 18 17 16
24 23 21 20 20 19 18 17 16 17 16 15 14 15 15 16 16 17 18 19 20 21 22 23 24 24 24 24 23 22 21 20 19 18 17 16 16 15 16 19 21 21 19
26 26 25 24 23 22 21 21 19 18 17 17 16 16 17 18 19 19 19 20 22 23 23 24 24 25 26 27 28 28 26 25 24 22 21 20 19 18 17 17 20 22 22
26 26 26 26 25 24 24 24 22 21 20 19 18 18 18 20 21 21 21 22 23 23 24 24 24 25 26 27 28 29 29 28 26 25 23 21 21 20 19 19 19 21 23
27 26 26 27 26 26 27 27 25 24 22 21 19 19 20 21 21 21 22 22 22 22 23 23 24 24 25 26 27 28 28 28 27 25 23 21 22 21 21 20 20 20 22
29 28 28 29 29 28 29 28 27 26 23 22 20 20 20 20 20 20 21 23 22 22 22 22 23 23 23 24 25 26 26 26 26 25 23 21 21 21 21 21 21 21 20
30 30 30 31 31 31 30 29 28 26 24 22 20 20 20 20 20 20 22 24 24 23 23 21 21 21 21 21 22 23 24 24 24 24 23 21 21 20 20 21 21 21 21
32 31 32 33 33 33 31 29 29 27 25 23 21 20 21 21 22 22 24 25 25 24 23 23 21 20 19 19 20 21 22 22 23 23 23 22 20 19 18 20 21 21 20
34 34 35 36 36 34 31 31 31 29 27 25 23 22 22 23 24 25 25 26 26 25 24 24 23 22 20 20 21 22 22 22 23 23 23 23 22 19 17 18 21 22 22
38 37 39 39 37 34 31 31 33 32 30 27 25 23 23 24 25 26 27 27 26 25 24 24 24 25 23 21 23 23 23 24 24 24 23 24 23 21 19 18 20 22 23
40 40 40 39 37 34 33 34 35 35 32 28 26 24 24 25 27 27 27 28 27 25 23 23 24 25 25 24 24 25 25 25 25 25 25 25 24 23 21 21 21 23 24
40 40 38 37 37 34 34 35 37 36 33 28 25 24 25 26 27 27 27 27 26 26 23 23 24 25 26 26 24 25 25 25 26 26 26 26 25 24 23 22 23 25 25
38 37 35 35 35 34 34 35 37 34 30 26 25 25 26 27 26 26 26 26 26 25 24 23 23 24 25 26 24 24 25 25 25 26 26 26 25 24 24 23 24 26 26
35 35 36 37 36 36 34 34 34 30 27 25 25 26 26 26 25 25 25 25 24 24 24 23 21 22 23 25 24 25 25 25 25 26 26 25 24 23 23 24 25 26 27
34 35 36 35 35 34 33 31 29 26 24 24 25 25 25 25 24 24 24 24 24 23 22 22 21 21 21 22 23 24 25 25 25 26 26 25 24 23 24 26 27 28 29
31 31 30 28 27 26 26 26 24 21 21 22 23 24 24 24 24 24 24 25 24 23 21 21 21 21 21 21 23 24 23 24 24 25 26 25 24 24 26 28 29 30 30
21 19 19 20 21 22 21 20 20 19 20 22 23 23 24 23 24 24 24 25 25 24 22 21 21 21 20 21 22 23 24 23 23 23 23 23 22 22 23 25 26 27 28
13 13 14 15 15 16 16 18 19 20 21 22 22 23 23 23 23 23 24 25 25 24 23 22 20 20 20 20 20 22 23 24 23 21 20 19 19 19 19 19 20 22 24
8 10 12 14 16 17 18 19 20 20 21 21 21 22 22 22 23 23 24 25 25 24 23 21 21 20 19 18 17 18 20 22 22 21 19 19 19 19 19 20 20 21 23
12 13 15 16 17 18 19 19 19 20 21 21 21 21 22 22 22 22 23 25 25 24 23 21 20 20 19 17 16 16 18 20 20 20 21 21 21 21 23 24 24 25 25
15 16 16 17 18 19 19 19 20 20 20 20 21 22 22 22 21 22 22 24 25 24 24 23 21 20 20 18 17 15 15 18 20 21 23 25 25 25 26 27 28 29 29
17 18 19 20 21 21 21 21 21 20 20 20 20 21 21 20 20 19 20 21 23 24 24 23 23 22 21 20 18 17 16 15 18 21 22 23 25 26 27 27 28 30 30
16 17 18 20 21 21 22 21 20 20 20 20 20 19 18 17 17 17 16 16 18 21 23 24 23 22 21 20 18 16 14 13 12 13 15 18 21 23 24 25 26 28 29
15 16 17 18 19 20 20 20 19 19 19 19 19 18 17 16 16 15 14 14 14 15 18 20 21 21 20 19 18 17 16 16 16 15 16 17 18 20 22 23 24 25 26
16 17 17 18 18 18 18 18 17 18 18 19 18 18 17 17 17 16 15 14 14 14 14 16 19 19 19 18 18 17 17 17 17 17 18 19 20 22 23 24 26 27 29
Wind_Direction
256 254 250 257 262 263 264 270 281 289 291 290 289 296 303 307 302 294 287 281 277 272 269 268 270 270 270 271 274 275 274 272 268 260 253 245 241 239 237 237 238 241 246
261 263 261 258 259 262 265 269 278 285 290 287 285 288 295 300 298 292 286 281 277 274 271 269 268 270 270 270 270 271 272 272 271 269 264 257 250 246 243 241 238 239 242
263 266 270 267 261 260 264 268 277 283 287 285 284 288 295 301 299 291 286 282 279 278 276 274 270 268 268 269 269 270 271 271 270 271 269 265 258 256 254 246 240 237 239
269 271 273 271 266 263 264 267 274 281 285 284 284 288 293 297 296 289 283 280 280 280 280 278 275 270 267 266 266 267 269 270 270 270 269 265 261 258 259 257 245 238 236
275 275 274 272 269 266 265 266 272 278 280 280 282 285 289 292 289 286 282 278 278 281 282 281 278 274 270 267 266 265 266 267 267 267 267 264 259 257 257 258 254 246 239
275 276 275 274 272 270 267 264 269 276 277 276 279 282 286 286 284 284 282 279 279 281 283 284 283 278 273 269 266 265 264 263 262 262 262 261 257 254 255 256 256 256 248
274 274 274 275 274 271 269 263 267 272 271 272 278 281 281 279 280 282 281 281 282 283 284 284 283 281 277 271 267 265 262 260 259 257 257 259 257 254 254 256 257 258 257
275 275 273 274 276 274 269 262 262 266 266 268 274 277 276 275 277 280 280 281 284 284 284 282 282 282 279 273 268 265 261 257 254 252 253 256 256 254 254 255 256 257 258
277 277 278 277 278 276 267 259 259 262 263 265 269 270 272 272 276 280 280 281 283 282 281 281 280 279 278 275 270 264 259 254 249 247 248 250 252 254 254 253 252 252 253
278 282 284 284 282 280 270 259 255 258 260 263 267 267 269 274 277 281 283 283 283 283 280 280 279 275 273 271 269 266 260 253 248 245 245 245 247 249 251 251 249 248 249
276 281 284 285 286 284 275 263 255 254 255 260 265 267 269 272 277 281 283 284 283 281 279 279 278 276 274 269 266 264 260 254 248 245 244 243 245 247 250 252 251 248 248
272 279 286 285 284 283 277 268 258 253 252 256 262 266 269 274 278 280 282 285 285 282 281 281 278 278 277 273 267 261 257 252 249 245 243 243 244 248 252 254 255 253 250
277 284 289 285 281 279 275 267 259 255 252 254 259 264 268 273 277 280 281 283 284 283 281 279 279 279 278 275 270 259 253 250 247 245 243 242 244 248 252 256 257 256 254
281 283 287 287 281 278 272 263 255 254 250 251 257 263 268 272 274 276 279 280 280 281 281 279 279 278 277 274 269 260 253 249 247 246 244 243 245 248 253 258 261 259 258
278 280 284 283 279 272 262 255 250 248 247 251 258 265 270 272 272 273 276 277 277 278 280 280 277 276 276 274 267 261 255 250 247 246 244 243 245 248 254 260 264 264 262
275 276 275 273 269 260 251 245 241 242 247 255 262 268 270 272 272 272 272 273 275 275 277 277 278 278 275 273 265 262 257 251 246 244 243 242 245 249 255 261 265 266 266
268 267 263 258 252 245 240 237 238 245 253 261 267 270 272 272 272 270 270 272 273 271 270 273 277 279 276 271 263 261 256 248 245 244 244 245 248 253 257 261 265 266 266
257 253 246 237 233 235 236 240 249 256 261 265 268 271 272 272 272 270 269 270 270 267 265 267 274 278 278 273 265 257 251 248 245 244 245 246 250 254 259 262 266 267 265
244 243 243 245 247 252 257 262 264 265 265 267 269 270 271 272 271 270 268 267 267 265 263 264 269 275 278 275 268 256 249 247 242 240 241 243 248 254 259 265 270 270 266
281 279 276 276 276 274 273 271 269 267 266 266 267 268 269 271 270 269 267 266 265 264 263 263 264 270 277 275 266 254 248 245 239 236 238 242 247 254 261 265 269 271 269
304 297 293 289 285 282 280 277 273 271 268 266 265 264 267 270 270 268 267 266 264 264 263 262 262 265 271 271 265 252 247 245 241 239 243 247 251 257 262 266 268 271 271
308 302 299 296 293 292 289 287 283 279 273 269 264 260 264 269 271 268 267 266 264 262 261 259 259 261 264 267 265 259 252 247 248 249 251 254 257 259 264 268 270 271 271
310 306 302 299 297 295 292 289 285 279 272 267 264 264 266 269 271 272 270 269 266 262 259 257 256 257 260 262 263 260 262 260 253 254 257 259 261 262 265 268 269 269 268
317 311 305 301 298 295 291 288 283 275 268 264 264 266 268 269 270 271 271 271 270 263 257 255 254 253 256 259 263 264 269 272 276 273 271 271 270 267 266 268 270 269 267
324 317 311 306 301 297 292 286 281 274 269 266 265 265 265 266 267 267 267 268 271 268 260 254 253 252 254 257 259 261 263 266 271 273 276 276 275 275 274 274 272 271 269
329 321 315 310 304 299 293 286 279 273 269 267 265 262 261 263 264 265 264 262 262 264 264 258 253 251 252 254 257 261 264 266 269 273 275 276 278 278 277 277 275 273 271
Height
5905 5906 5906 5906 5905 5904 5904 5905 5905 5905 5904 5903 5902 5902 5902 5901 5900 5900 5900 5900 5901 5901 5902 5902 5902 5903 5903 5904 5904 5905 5905 5905 5905 5905 5905 5906 5908 5909 5911 5913 5914 5916 5917
5902 5902 5903 5903 5903 5902 5902 5902 5902 5902 5901 5901 5900 5900 5900 5899 5899 5898 5898 5898 5898 5898 5898 5899 5899 5900 5901 5901 5902 5903 5903 5904 5904 5904 5903 5904 5905 5906 5908 5909 5911 5912 5914
5898 5899 5899 5900 5899 5899 5899 5899 5899 5899 5898 5898 5897 5897 5897 5896 5895 5895 5894 5894 5894 5894 5894 5894 5894 5895 5896 5897 5898 5899 5900 5900 5901 5901 5901 5901 5902 5902 5903 5905 5907 5909 5910
5893 5894 5895 5895 5895 5895 5895 5895 5895 5895 5895 5894 5894 5893 5893 5892 5891 5890 5889 5889 5889 5889 5889 5889 5889 5889 5890 5891 5893 5894 5895 5896 5897 5897 5898 5898 5899 5899 5899 5900 5902 5904 5906
5888 5889 5890 5890 5890 5890 5890 5890 5890 5891 5891 5890 5890 5889 5888 5887 5886 5885 5884 5884 5883 5884 5883 5883 5883 5883 5884 5884 5886 5887 5889 5890 5891 5892 5893 5894 5894 5895 5896 5897 5898 5900 5902
5883 5884 5884 5884 5885 5885 5885 5885 5885 5885 5886 5885 5885 5884 5883 5882 5881 5880 5879 5878 5878 5878 5878 5878 5878 5878 5878 5878 5879 5880 5882 5884 5886 5887 5888 5889 5889 5890 5892 5893 5894 5895 5897
5877 5877 5878 5877 5878 5878 5878 5879 5879 5879 5880 5880 5879 5879 5878 5877 5876 5875 5874 5872 5873 5873 5872 5873 5872 5872 5872 5872 5872 5874 5876 5878 5879 5881 5883 5884 5884 5885 5887 5888 5889 5891 5892
5869 5870 5871 5870 5871 5871 5871 5871 5873 5873 5874 5874 5874 5873 5872 5872 5870 5870 5869 5867 5867 5867 5867 5867 5867 5867 5867 5867 5867 5868 5869 5871 5873 5875 5877 5878 5880 5881 5882 5883 5885 5886 5888
5862 5863 5863 5863 5863 5862 5862 5863 5866 5867 5867 5868 5868 5867 5866 5866 5865 5865 5863 5862 5861 5862 5861 5861 5862 5862 5862 5862 5862 5862 5864 5866 5868 5870 5872 5874 5875 5876 5877 5878 5880 5882 5883
5854 5854 5855 5855 5854 5854 5854 5856 5858 5859 5861 5861 5861 5861 5861 5860 5859 5858 5858 5856 5856 5855 5855 5855 5855 5856 5857 5857 5857 5857 5859 5860 5862 5865 5867 5869 5870 5872 5873 5874 5876 5877 5879
5844 5845 5846 5846 5846 5847 5847 5848 5850 5851 5853 5854 5854 5854 5854 5854 5853 5852 5851 5850 5850 5849 5849 5849 5849 5849 5851 5852 5852 5852 5853 5855 5857 5859 5861 5864 5866 5867 5869 5870 5872 5873 5874
5835 5837 5838 5838 5838 5839 5840 5840 5841 5843 5844 5846 5847 5847 5847 5846 5845 5845 5844 5842 5842 5843 5843 5844 5844 5844 5844 5846 5846 5846 5847 5850 5852 5854 5856 5858 5860 5862 5864 5865 5867 5868 5870
5827 5828 5829 5829 5830 5831 5831 5832 5833 5834 5836 5838 5840 5840 5840 5839 5838 5837 5837 5836 5835 5835 5836 5837 5838 5838 5838 5839 5840 5840 5841 5844 5846 5849 5851 5853 5855 5857 5858 5860 5862 5863 5864
5820 5820 5821 5821 5821 5822 5822 5823 5825 5826 5828 5830 5832 5832 5832 5831 5831 5830 5830 5830 5830 5829 5829 5830 5831 5832 5832 5833 5834 5834 5836 5838 5841 5843 5845 5847 5849 5851 5853 5854 5856 5858 5859
5812 5812 5812 5812 5812 5813 5814 5815 5817 5818 5820 5822 5823 5824 5824 5823 5823 5823 5823 5823 5824 5824 5824 5823 5824 5826 5826 5827 5828 5829 5831 5833 5835 5837 5840 5842 5844 5845 5847 5849 5851 5852 5853
5803 5804 5803 5803 5804 5804 5806 5808 5809 5810 5812 5814 5815 5816 5815 5815 5815 5816 5816 5817 5818 5818 5818 5818 5819 5820 5821 5821 5822 5823 5825 5826 5829 5831 5834 5836 5838 5839 5842 5843 5845 5845 5846
5795 5795 5795 5796 5797 5797 5799 5800 5802 5803 5804 5806 5807 5807 5808 5808 5808 5809 5810 5811 5812 5812 5812 5813 5813 5815 5815 5816 5817 5817 5819 5821 5823 5825 5828 5830 5831 5833 5835 5837 5838 5838 5839
5788 5789 5789 5790 5791 5792 5793 5794 5796 5797 5798 5799 5800 5801 5801 5802 5802 5803 5804 5805 5806 5806 5807 5808 5808 5809 5810 5810 5811 5812 5814 5815 5817 5820 5822 5824 5826 5827 5829 5830 5830 5830 5831
5784 5785 5785 5786 5787 5787 5788 5789 5791 5791 5792 5793 5794 5794 5795 5796 5796 5796 5797 5799 5800 5800 5801 5802 5803 5804 5805 5805 5805 5806 5808 5809 5811 5814 5816 5818 5820 5822 5823 5823 5824 5824 5824
5782 5782 5782 5782 5783 5784 5784 5785 5785 5786 5786 5787 5787 5788 5789 5789 5790 5790 5791 5793 5794 5795 5795 5797 5798 5799 5800 5800 5800 5801 5802 5804 5806 5808 5811 5813 5815 5816 5817 5818 5818 5818 5819
5781 5780 5780 5780 5780 5779 5779 5779 5779 5779 5779 5780 5781 5782 5783 5783 5783 5784 5785 5786 5787 5789 5790 5792 5793 5794 5795 5795 5796 5796 5797 5798 5801 5803 5806 5808 5809 5810 5811 5812 5813 5813 5813
5779 5778 5777 5776 5775 5774 5773 5773 5773 5773 5773 5774 5775 5776 5777 5777 5777 5778 5779 5780 5781 5783 5785 5786 5788 5789 5790 5791 5792 5792 5792 5794 5796 5798 5800 5802 5803 5804 5805 5806 5806 5806 5806
5776 5774 5772 5771 5769 5768 5767 5766 5766 5766 5766 5767 5768 5769 5770 5770 5770 5771 5772 5773 5775 5776 5778 5780 5782 5784 5785 5786 5787 5787 5788 5789 5790 5792 5793 5794 5795 5797 5798 5798 5798 5798 5797
5773 5770 5768 5766 5764 5762 5761 5760 5760 5760 5760 5761 5761 5763 5763 5764 5764 5765 5766 5767 5768 5769 5771 5773 5776 5778 5779 5781 5782 5783 5783 5784 5785 5787 5787 5788 5789 5789 5790 5790 5790 5789 5789
5770 5767 5764 5761 5758 5756 5755 5754 5754 5754 5754 5754 5755 5756 5757 5757 5758 5759 5760 5762 5763 5764 5765 5767 5769 5771 5773 5775 5777 5778 5779 5780 5781 5782 5783 5783 5783 5783 5783 5783 5782 5782 5781
5766 5763 5759 5756 5753 5751 5749 5748 5748 5748 5748 5748 5748 5749 5750 5751 5752 5753 5754 5756 5758 5759 5761 5762 5764 5766 5768 5770 5772 5774 5775 5776 5776 5777 5777 5777 5777 5776 5776 5775 5774 5773 5772